Location: Étang Rond
(42.7927°N, 1.0661°E)
Time: 23:09:25
(UTC+00:00)

USA 267 - Pass Details

Date: 08 November 2025
Orbit: 1100 x 1108 km, 123.0° (Epoch: 21 November)

Event Time Altitude Azimuth Distance (km) Brightness Sun altitude
Rises 03:13:05 0° 48° (NE) 3,922 6.9 -37.8°
Reaches altitude 10° 03:15:34 10° 47° (NE) 2,961 6.1 -37.4°
Enters shadow 03:20:18 52° 41° (NE) 1,348 3.8 -36.6°
